Visibility
12.3 15.0 4.4 15.0 15.0 15.0 15.0 15.0 15.0 12.5 14.6 13.9 15.0 14.9 15.0 15.0 15.0 15.0 15.0 15.0 15.0 15.0 15.0 15.0 15.0 15.0 15.0 15.0 15.0 15.0 15.0 15.0 15.0 15.0 15.0 15.0 15.0 15.0
5.3 9.5 6.7 13.7 15.0 14.0 15.0 15.0 15.0 15.0 8.7 14.3 15.0 15.0 15.0 15.0 15.0 15.0 15.0 15.0 15.0 15.0 15.0 15.0 15.0 15.0 15.0 15.0 15.0 15.0 15.0 15.0 15.0 15.0 15.0 15.0 15.0 15.0
4.3 14.1 12.6 15.0 5.0 10.9 15.0 15.0 8.8 15.0 12.5 15.0 12.2 12.2 7.9 8.0 5.7 15.0 15.0 15.0 15.0 11.9 15.0 15.0 15.0 15.0 15.0 15.0 15.0 15.0 15.0 15.0 15.0 15.0 15.0 15.0 15.0 15.0
3.5 4.8 8.5 15.0 15.0 14.5 15.0 15.0 15.0 15.0 15.0 13.8 6.6 1.0 4.9 10.5 4.7 15.0 15.0 15.0 15.0 12.1 8.9 10.5 15.0 15.0 15.0 15.0 15.0 15.0 15.0 15.0 15.0 15.0 15.0 15.0 15.0 15.0
4.0 4.1 8.0 15.0 15.0 15.0 15.0 15.0 15.0 15.0 15.0 15.0 0.2 7.9 6.5 4.8 0.5 14.7 15.0 15.0 15.0 15.0 15.0 15.0 15.0 15.0 15.0 15.0 15.0 15.0 15.0 15.0 15.0 15.0 15.0 15.0 15.0 15.0
15.0 15.0 15.0 15.0 15.0 15.0 15.0 15.0 15.0 15.0 15.0 15.0 7.0 0.3 3.6 0.2 13.6 0.3 0.3 6.5 14.8 15.0 8.9 6.1 13.7 10.6 15.0 15.0 15.0 15.0 15.0 15.0 15.0 15.0 15.0 15.0 15.0 15.0
15.0 15.0 15.0 4.3 15.0 14.6 15.0 15.0 15.0 14.8 15.0 15.0 0.1 0.2 0.1 0.1 0.1 11.4 3.4 1.7 3.4 12.5 15.0 15.0 15.0 15.0 13.1 3.1 11.5 15.0 15.0 15.0 15.0 15.0 15.0 15.0 15.0 15.0
0.2 0.1 0.2 0.2 0.2 0.4 0.5 0.1 0.2 14.8 15.0 15.0 0.1 0.3 0.5 9.7 8.1 13.3 0.8 2.4 3.9 12.5 15.0 15.0 15.0 15.0 15.0 15.0 12.0 15.0 15.0 15.0 15.0 15.0 15.0 15.0 15.0 15.0
1.9 0.1 0.1 1.2 15.0 13.0 11.1 15.0 15.0 12.2 0.8 0.3 0.1 6.3 12.8 3.8 3.5 0.8 0.7 3.5 9.5 14.3 14.7 15.0 15.0 15.0 15.0 15.0 15.0 15.0 15.0 15.0 15.0 15.0 15.0 15.0 15.0 15.0
0.2 0.4 0.1 0.1 0.3 0.7 13.6 15.0 10.1 11.9 7.0 15.0 15.0 12.4 15.0 15.0 15.0 15.0 15.0 15.0 14.5 15.0 11.5 14.7 2.4 1.7 3.4 6.8 3.5 15.0 15.0 15.0 15.0 15.0 15.0 15.0 15.0 15.0
0.1 0.2 0.1 0.1 1.8 13.3 15.0 4.5 2.5 0.8 13.5 13.7 3.4 2.1 2.0 1.7 8.5 15.0 15.0 10.0 0.2 2.1 1.1 1.1 1.9 2.0 3.2 3.4 6.7 13.5 15.0 15.0 15.0 15.0 15.0 15.0 15.0 15.0
0.1 0.1 1.2 1.0 6.2 15.0 15.0 15.0 4.0 0.6 1.4 1.9 2.3 2.8 2.2 1.1 0.9 0.3 0.1 0.1 1.1 1.1 0.9 1.4 4.3 15.0 11.1 15.0 15.0 15.0 15.0 15.0 15.0 15.0 15.0 15.0 15.0 15.0
0.1 0.1 3.1 6.4 8.8 3.2 5.2 15.0 3.5 3.6 1.3 13.3 14.8 6.9 10.5 15.0 10.8 2.2 1.3 0.9 1.0 0.8 1.3 6.6 4.6 13.8 13.4 15.0 15.0 15.0 15.0 15.0 15.0 15.0 15.0 15.0 15.0 15.0
0.4 0.8 0.6 1.1 1.4 1.1 1.0 0.9 1.3 2.6 15.0 6.4 0.4 0.1 0.7 0.6 0.5 0.6 0.8 1.6 2.2 3.6 13.3 15.0 15.0 15.0 15.0 15.0 15.0 15.0 15.0 15.0 15.0 15.0 15.0 15.0 15.0 15.0
4.8 0.7 0.5 0.9 0.8 0.6 0.6 0.5 0.4 0.2 0.1 0.1 0.1 0.4 1.5 1.0 0.8 1.4 2.1 7.8 6.8 2.9 8.9 15.0 15.0 15.0 15.0 15.0 15.0 15.0 15.0 15.0 15.0 15.0 15.0 15.0 15.0 15.0
0.3 0.4 1.4 1.0 1.0 0.4 0.2 0.1 0.1 0.1 0.1 0.3 1.8 2.7 15.0 15.0 7.4 7.4 15.0 8.1 14.4 15.0 15.0 15.0 15.0 15.0 15.0 15.0 15.0 15.0 15.0 15.0 15.0 15.0 15.0 15.0 15.0 15.0
0.5 0.3 0.1 0.1 0.1 0.1 0.1 0.1 0.2 0.4 0.6 4.8 8.8 1.9 12.9 15.0 8.3 13.0 15.0 15.0 14.7 14.9 15.0 15.0 15.0 15.0 15.0 15.0 15.0 15.0 15.0 15.0 15.0 15.0 15.0 15.0 15.0 15.0
0.2 0.1 0.1 0.1 0.1 0.1 0.1 0.1 0.5 2.0 2.2 9.5 15.0 10.9 15.0 15.0 8.6 8.9 15.0 15.0 15.0 15.0 15.0 15.0 15.0 15.0 15.0 15.0 15.0 15.0 15.0 15.0 15.0 15.0 15.0 15.0 15.0 15.0
0.2 0.1 0.2 0.1 0.2 0.4 2.7 14.9 15.0 15.0 15.0 15.0 15.0 15.0 15.0 15.0 15.0 15.0 15.0 15.0 15.0 15.0 15.0 15.0 15.0 15.0 15.0 15.0 15.0 15.0 15.0 15.0 13.3 8.5 15.0 13.7 15.0 15.0
0.8 0.6 0.5 12.5 15.0 15.0 15.0 15.0 15.0 15.0 15.0 15.0 15.0 15.0 15.0 15.0 15.0 15.0 15.0 15.0 15.0 15.0 15.0 15.0 15.0 15.0 15.0 15.0 15.0 15.0 15.0 14.5 12.8 3.3 5.6 14.7 15.0 15.0
15.0 15.0 15.0 15.0 15.0 15.0 15.0 15.0 15.0 15.0 15.0 15.0 15.0 15.0 15.0 15.0 15.0 15.0 15.0 15.0 15.0 15.0 15.0 15.0 15.0 15.0 15.0 15.0 15.0 15.0 15.0 15.0 15.0 15.0 15.0 5.4 15.0 15.0
15.0 15.0 15.0 15.0 15.0 15.0 15.0 15.0 15.0 15.0 15.0 15.0 15.0 15.0 15.0 15.0 15.0 15.0 15.0 15.0 15.0 15.0 15.0 15.0 15.0 15.0 15.0 15.0 15.0 15.0 15.0 15.0 15.0 15.0 15.0 15.0 7.7 1.3
15.0 15.0 15.0 15.0 15.0 15.0 15.0 15.0 15.0 15.0 15.0 15.0 15.0 15.0 15.0 15.0 15.0 15.0 15.0 15.0 15.0 15.0 15.0 15.0 15.0 15.0 15.0 15.0 15.0 15.0 15.0 15.0 14.8 15.0 15.0 15.0 15.0 15.0